Location: Caltech
(34.1382°N, 118.1253°W)
Time: 04:11:32
(UTC-07:00)

CZ-4B DEB - Visible Passes

Search period start: 18 October 2017 00:00
Search period end: 28 October 2017 00:00
Orbit: 840 x 863 km, 99.0° (Epoch: 17 October)

Date Brightness Start Highest point End Pass type
(mag) Time Alt. Az. Time Alt. Az. Time Alt. Az.
18 Oct 4.1 05:04:03 10° NNE 05:09:34 86° WNW 05:15:05 10° SSW visible
19 Oct 4.3 04:52:34 10° NNE 04:58:04 74° ESE 05:03:34 10° S visible
19 Oct 5.9 06:35:44 10° NW 06:38:04 13° WNW 06:40:24 10° W visible
20 Oct 4.7 04:41:08 10° NNE 04:46:33 57° E 04:51:58 10° S visible
20 Oct 5.6 06:23:23 10° NNW 06:26:43 17° WNW 06:30:04 10° WSW visible
21 Oct 5.2 04:29:47 10° NNE 04:35:01 44° E 04:40:15 10° S visible
21 Oct 5.4 06:11:20 10° NNW 06:15:21 21° WNW 06:19:22 10° WSW visible
22 Oct 5.7 04:18:30 10° NNE 04:23:28 34° E 04:28:26 10° SSE visible
22 Oct 5.1 05:59:26 10° NNW 06:03:57 27° WNW 06:08:29 10° WSW visible
23 Oct 6.1 04:07:19 10° NE 04:11:54 26° E 04:16:28 10° SSE visible
23 Oct 4.8 05:47:38 10° N 05:52:33 34° WNW 05:57:28 10° SW visible
24 Oct 6.4 03:56:17 10° NE 04:00:19 20° E 04:04:20 10° SE visible
24 Oct 4.5 05:35:56 10° N 05:41:07 44° WNW 05:46:19 10° SW visible
25 Oct 6.8 03:45:30 10° ENE 03:48:42 16° E 03:51:55 10° SE visible
25 Oct 4.2 05:24:18 10° N 05:29:40 56° WNW 05:35:03 10° SSW visible
26 Oct 7.1 03:35:13 10° ENE 03:37:05 12° E 03:38:56 10° ESE visible
26 Oct 4.1 05:12:42 10° N 05:18:12 73° WNW 05:23:42 10° SSW visible
27 Oct 4.1 05:01:10 10° NNE 05:06:43 88° ESE 05:12:15 10° SSW visible
